Cloud_Cover
24 26 17 21 21 84 100 45 38 100 42 36 17 12 0 0 0 0 0 0 0 0 0 0 3 2 21 8 0 0 2 2 3 0 0 29 50 55 43 76 7 98 2 0 0
24 27 22 44 98 100 100 100 30 100 59 48 28 12 0 0 0 0 0 0 0 0 0 0 0 71 0 4 7 1 0 0 1 3 5 5 73 100 99 11 20 95 48 0 0
19 25 37 100 100 100 100 30 12 36 47 69 31 8 0 0 0 0 0 0 0 0 10 0 0 0 3 4 0 26 3 5 0 0 6 100 92 100 75 93 87 16 3 0 0
44 50 100 100 100 100 100 100 31 21 53 97 26 0 0 0 0 0 0 0 0 0 1 0 0 4 8 1 3 0 1 4 0 2 2 31 85 90 91 100 98 5 22 45 0
59 99 100 100 100 100 100 100 92 8 99 40 24 0 0 0 0 0 0 0 0 0 0 1 0 3 0 2 87 5 5 4 5 0 0 2 51 95 8 20 13 5 4 0 50
100 100 100 100 100 100 100 100 100 36 53 37 9 0 0 0 0 0 0 0 0 0 0 0 5 4 0 76 53 8 5 5 13 5 5 4 4 85 98 6 5 18 0 2 64
100 100 100 100 100 100 100 85 1 29 36 32 0 0 0 0 0 0 0 0 0 0 0 0 0 4 0 5 25 2 6 5 34 70 4 3 1 48 85 100 94 81 0 0 4
100 100 100 100 100 100 52 0 0 18 37 27 0 0 0 0 0 0 0 0 0 0 0 0 1 0 0 0 5 5 3 12 38 43 5 4 5 24 5 99 99 99 8 46 100
100 100 100 100 100 100 3 0 0 40 39 0 0 0 0 0 0 0 0 0 0 0 0 0 0 0 9 0 3 37 4 36 61 5 4 4 25 5 48 10 99 100 63 98 100
100 100 100 100 100 97 0 0 0 0 13 0 0 0 0 0 0 0 0 0 0 0 0 0 0 0 5 32 69 100 28 7 8 13 3 1 3 78 100 86 87 100 99 100 100
100 100 100 100 100 66 0 0 0 0 0 0 0 0 0 0 0 0 0 0 0 0 0 0 0 7 80 79 64 16 5 2 5 86 23 4 5 100 100 96 5 99 100 100 100
100 100 100 100 100 30 0 0 0 0 0 0 0 0 0 0 0 0 0 0 0 0 0 0 0 8 26 4 3 5 48 23 97 55 1 0 12 100 100 100 48 100 100 98 100
100 100 100 100 100 33 0 0 0 0 0 0 0 0 0 0 0 0 0 0 0 0 0 1 2 0 0 5 3 5 91 100 86 1 0 2 84 100 100 100 100 98 100 87 100
100 100 100 100 38 0 0 0 0 0 0 0 0 0 0 0 0 0 0 0 0 0 0 0 1 5 76 13 39 7 100 63 94 43 3 33 86 100 91 100 100 100 100 92 98
99 100 100 25 82 0 0 0 0 0 0 0 0 0 0 0 0 0 0 0 0 0 0 0 0 0 0 0 17 0 0 7 86 28 93 88 100 100 94 28 51 35 50 6 50
29 62 99 45 32 6 0 0 1 0 0 0 0 2 1 5 0 0 0 0 0 0 0 0 0 0 0 0 0 0 0 0 56 3 61 73 95 97 97 8 74 12 78 27 12
15 17 91 0 0 0 0 4 0 3 0 1 0 0 0 0 0 0 0 0 0 0 0 0 0 0 0 0 0 0 0 0 2 20 0 0 99 9 9 8 34 94 74 71 100
0 79 23 0 0 0 0 3 2 5 5 5 0 0 0 0 0 0 0 0 0 0 0 0 0 0 0 0 0 0 0 0 0 0 0 0 46 100 19 54 100 100 98 100 54
0 24 0 0 0 0 0 3 3 2 0 0 0 0 0 0 0 0 0 0 0 0 0 0 2 0 1 5 5 3 0 0 0 0 0 4 2 86 98 9 89 78 100 94 96
0 0 0 0 0 0 0 4 3 1 3 4 0 0 0 2 0 5 5 16 2 5 5 1 0 1 4 3 0 0 0 2 49 1 0 86 74 5 1 23 100 98 73 100 38
0 0 0 0 0 0 0 3 0 5 0 0 2 0 0 5 0 5 12 38 36 15 2 4 0 1 0 0 0 2 5 5 5 5 1 0 13 19 4 3 2 100 100 100 100
0 0 0 0 0 0 0 0 0 0 0 0 0 0 0 0 4 0 28 5 1 1 3 0 0 0 0 0 0 0 4 5 5 5 5 5 0 0 4 5 5 0 1 21 100
0 0 0 0 0 0 0 0 0 0 0 0 0 0 0 0 0 0 0 0 0 0 0 0 0 0 0 0 0 0 0 5 9 8 16 6 4 79 5 27 5 3 3 2 88
0 0 0 0 0 0 0 0 0 0 0 0 0 0 0 0 0 0 0 0 0 0 0 0 0 0 0 0 0 0 0 1 27 76 28 5 2 97 90 6 76 84 1 2 0
0 0 0 0 0 0 0 0 0 0 0 0 0 0 0 0 0 0 0 0 0 0 0 1 0 0 0 0 0 0 0 0 5 24 33 1 2 0 5 6 6 1 5 3 4
0 0 0 0 0 0 0 0 0 0 0 0 0 0 5 0 0 0 0 0 0 0 0 0 5 0 5 2 0 0 0 0 0 0 6 100 15 0 0 5 4 5 98 9 5
0 0 0 0 0 0 0 1 0 0 1 1 0 4 4 5 5 4 5 2 5 5 1 5 0 0 4 0 0 1 0 0 0 0 0 32 67 7 2 0 3 5 5 24 81